Location: Newark
(44.3100°N, 0.7769°W)
Time: 10:35:10
(UTC+00:00)

Envisat - Pass Details

Date: 21 November 2019
Orbit: 764 x 766 km, 98.1° (Epoch: 10 December)

Event Time Altitude Azimuth Distance (km) Brightness Sun altitude
Rises 19:21:26 0° 211° (SSW) 3,220 6.6 -30.2°
Reaches altitude 10° 19:24:37 10° 232° (SW) 2,300 6.0 -30.7°
Maximum altitude 19:27:43 16° 270° (W) 1,912 5.8 -31.3°
Drops below altitude 10° 19:30:49 10° 308° (NW) 2,310 6.1 -31.9°
Sets 19:34:03 0° 330° (NNW) 3,241 6.7 -32.4°
